,,�O�C���x[��],����1,�O�C���x[��],����2,���ԉ��x [��],����3,���Ԏ��x [��],����4,�Q�����x [��],����5,���� [��],����6,�R�����i��󒲎��j���x�m���n,����7
2004/8/1,0:00,26,0,80,0,30.6,0,44.8,0,27.3,0,27.8,0,31.5,0
2004/8/1,0:15,26.2,0,78.7,0,30.6,0,44.3,0,27.3,0,27.8,0,31.4,0
2004/8/1,0:30,26.4,0,77.5,0,30.5,0,43.9,0,27.4,0,27.8,0,31.3,0
2004/8/1,0:45,26.1,0,77.9,0,30.4,0,43.6,0,27.3,0,27.9,0,31.2,0
2004/8/1,1:00,26.1,0,77.9,0,30.3,0,43.3,0,27.3,0,27.9,0,31.1,0
2004/8/1,1:15,25.6,0,80.3,0,30.2,0,43.2,0,27.3,0,27.9,0,31,0
2004/8/1,1:30,26,0,77.7,0,30.1,0,43.1,0,27.3,0,28,0,30.9,0
2004/8/1,1:45,25.6,0,79.7,0,30.1,0,43,0,27.3,0,28,0,30.8,0
2004/8/1,2:00,25,0,82.2,0,30,0,43,0,27.2,0,28,0,30.7,0
2004/8/1,2:15,24.8,0,83,0,29.9,0,42.9,0,27.2,0,28,0,30.6,0
2004/8/1,2:30,25,0,81.9,0,29.5,0,44.1,0,27.2,0,28,0,30.5,0
2004/8/1,2:45,24.8,0,83,0,28.7,0,44.4,0,27.2,0,28,0,29.9,0
2004/8/1,3:00,24.4,0,84.7,0,28,0,44.7,0,27.2,0,28,0,29.5,0
2004/8/1,3:15,24.3,0,84.8,0,27.5,0,44.7,0,27.3,0,28.1,0,29.1,0
2004/8/1,3:30,24.2,0,85.4,0,27.2,0,45,0,27.3,0,28,0,28.8,0
2004/8/1,3:45,24.1,0,85.8,0,27,0,45.4,0,27.3,0,28,0,28.6,0
2004/8/1,4:00,24.6,0,83.2,0,26.6,0,45.3,0,27.3,0,28,0,28.3,0
2004/8/1,4:15,24.2,0,85.4,0,26.4,0,45.3,0,27.3,0,27.9,0,28,0
2004/8/1,4:30,23.7,0,86.5,0,26.1,0,46.1,0,27.2,0,27.9,0,27.8,0
2004/8/1,4:45,23.9,0,85.4,0,25.9,0,46.6,0,27.2,0,27.8,0,27.6,0
2004/8/1,5:00,24.2,0,85.6,0,25.7,0,46.7,0,27.2,0,27.7,0,27.4,0
2004/8/1,5:15,24.2,0,86.2,0,25.5,0,46.5,0,27.1,0,27.6,0,27.2,0
2004/8/1,5:30,24.3,0,86,0,25.5,0,47.2,0,27.1,0,27.5,0,27.2,0
2004/8/1,5:45,24.9,0,84.2,0,25.7,0,46.9,0,27,0,27.5,0,27.4,0
2004/8/1,6:00,26,0,77.9,0,25.7,0,46.9,0,27,0,27.4,0,27.5,0
2004/8/1,6:15,26.5,0,77.3,0,25.8,0,46.7,0,26.9,0,27.3,0,27.5,0
2004/8/1,6:30,27.1,0,76.6,0,25.8,0,46.8,0,26.9,0,27.3,0,27.7,0
2004/8/1,6:45,27.8,0,73,0,25.8,0,47,0,26.9,0,27.3,0,27.8,0
2004/8/1,7:00,28.4,0,70.6,0,25.9,0,47.2,0,26.9,0,27.3,0,27.9,0
2004/8/1,7:15,29.1,0,66.6,0,26.8,0,49.5,0,26.9,0,27.2,0,28.4,0
2004/8/1,7:30,29.6,0,67.3,0,27.4,0,50.7,0,26.9,0,27.3,0,29.1,0
2004/8/1,7:45,30.1,0,66.2,0,28,0,51.5,0,26.9,0,26.6,0,29.6,0
2004/8/1,8:00,30.7,0,63,0,28.1,0,50.1,0,26.9,0,26.9,0,30,0
2004/8/1,8:15,31.4,0,60.8,0,27.9,0,51.8,0,27,0,27.1,0,29.7,0
2004/8/1,8:30,31.7,0,60.8,0,28.1,0,51.8,0,27,0,26.2,0,29.8,0
2004/8/1,8:45,32,0,58.4,0,28.2,0,50.5,0,27.1,0,26.3,0,30,0
2004/8/1,9:00,33,0,56.2,0,28.3,0,49.6,0,27.1,0,26.3,0,30.2,0
2004/8/1,9:15,33.1,0,56.4,0,28.3,0,49.4,0,27.2,0,26.4,0,30.4,0
2004/8/1,9:30,33.3,0,56.6,0,28.4,0,49.9,0,27.3,0,26.4,0,30.6,0
2004/8/1,9:45,33.8,0,55.4,0,28.4,0,49.7,0,27.3,0,26.5,0,30.6,0
2004/8/1,10:00,34.3,0,51.5,0,28.4,0,49.5,0,27.3,0,26.5,0,30.7,0
2004/8/1,10:15,34.3,0,49,0,28.4,0,49.2,0,27.3,0,26.5,0,30.8,0
2004/8/1,10:30,34.4,0,51.5,0,28.3,0,48.9,0,27.3,0,26.6,0,30.8,0
2004/8/1,10:45,34.5,0,51.4,0,28.3,0,48.7,0,27.2,0,26.6,0,30.8,0
2004/8/1,11:00,34.7,0,50.2,0,28.3,0,48.4,0,27.3,0,26.6,0,30.8,0
2004/8/1,11:15,35.3,0,49.4,0,28.4,0,48.8,0,27.3,0,26.7,0,30.8,0
2004/8/1,11:30,34.5,0,54,0,28.5,0,48.8,0,27.4,0,26.7,0,31,0
2004/8/1,11:45,34.8,0,53.5,0,28.5,0,48.7,0,27.4,0,26.8,0,31,0
2004/8/1,12:00,34.3,0,54,0,28.5,0,48.3,0,27.5,0,26.7,0,31.1,0
2004/8/1,12:15,34.5,0,51.4,0,28.5,0,48,0,27.5,0,27,0,31.1,0
2004/8/1,12:30,34.1,0,49,0,28.5,0,47.5,0,27.5,0,27.1,0,31.1,0
2004/8/1,12:45,34,0,49.6,0,28.5,0,47.6,0,27.6,0,27.2,0,31,0
2004/8/1,13:00,34.2,0,48.2,0,28.5,0,47.5,0,27.6,0,27.2,0,31,0
2004/8/1,13:15,34.5,0,45.2,0,28.5,0,47.1,0,27.7,0,27.3,0,30.9,0
2004/8/1,13:30,35.2,0,38.9,0,28.5,0,46.6,0,27.7,0,27.3,0,31,0
2004/8/1,13:45,35.2,0,38.5,0,28.4,0,46.5,0,27.8,0,27.3,0,30.9,0
2004/8/1,14:00,34,0,46,0,28.5,0,46.3,0,28,0,27.3,0,31,0
2004/8/1,14:15,33,0,49.8,0,28.5,0,46.4,0,28,0,27.4,0,31,0
2004/8/1,14:30,32.4,0,50.6,0,28.6,0,46.4,0,28,0,27.4,0,31,0
2004/8/1,14:45,32.7,0,49.3,0,28.6,0,45.9,0,28.1,0,27.4,0,31,0
2004/8/1,15:00,33,0,47.2,0,28.7,0,45.7,0,28.1,0,27.5,0,31.1,0
2004/8/1,15:15,32.3,0,49.5,0,28.7,0,45.5,0,28.2,0,27.5,0,31.2,0
2004/8/1,15:30,32.2,0,48.7,0,28.7,0,46.4,0,28.2,0,26.3,0,31.3,0
2004/8/1,15:45,31.7,0,51.1,0,28.7,0,45.9,0,28.3,0,26.4,0,31.4,0
2004/8/1,16:00,32.1,0,46.9,0,28.7,0,45.3,0,28.3,0,26.5,0,31.4,0
2004/8/1,16:15,31.8,0,50.2,0,28.6,0,44.8,0,28.4,0,26.6,0,31.4,0
2004/8/1,16:30,31,0,55.1,0,28.6,0,45.5,0,28.4,0,26.6,0,31.3,0
2004/8/1,16:45,30.1,0,60.8,0,28.6,0,45.6,0,28.4,0,26.7,0,31.1,0
2004/8/1,17:00,30.8,0,57.3,0,28.5,0,45.9,0,28.5,0,26.7,0,31,0
2004/8/1,17:15,30.4,0,56.7,0,28.5,0,45.9,0,28.5,0,26.8,0,30.9,0
2004/8/1,17:30,29.4,0,65.4,0,28.5,0,45.8,0,28.5,0,26.8,0,30.8,0
2004/8/1,17:45,28.7,0,66.4,0,28.4,0,45.9,0,28.5,0,26.8,0,30.7,0
2004/8/1,18:00,28.1,0,67.1,0,28.3,0,45.8,0,28.5,0,26.9,0,30.5,0
2004/8/1,18:15,27.7,0,67.5,0,28.2,0,45.6,0,28.5,0,26.9,0,30.4,0
2004/8/1,18:30,27.4,0,68.6,0,28.1,0,45.5,0,28.5,0,26.9,0,30.2,0
2004/8/1,18:45,27.1,0,69.1,0,27.9,0,45.6,0,28.5,0,27,0,30.1,0
2004/8/1,19:00,26.8,0,69.7,0,27.9,0,45.7,0,28.5,0,27,0,29.9,0
2004/8/1,19:15,26.4,0,73,0,27.7,0,45.6,0,28.4,0,27,0,29.7,0
2004/8/1,19:30,26.3,0,74.5,0,27.6,0,45.6,0,28.4,0,27.1,0,29.6,0
2004/8/1,19:45,25.7,0,78.8,0,27.5,0,45.6,0,28.3,0,27.1,0,29.4,0
2004/8/1,20:00,25.6,0,79.9,0,27.3,0,45.6,0,28.3,0,27.1,0,29.3,0
2004/8/1,20:15,25.1,0,81.5,0,27.2,0,45.5,0,28.3,0,27.1,0,29.1,0
2004/8/1,20:30,25,0,82.9,0,27,0,45.6,0,28.2,0,27.1,0,29,0
2004/8/1,20:45,25.2,0,78.4,0,26.9,0,45.6,0,28.1,0,27.2,0,28.8,0
2004/8/1,21:00,24.9,0,79.9,0,26.8,0,45.7,0,28.1,0,27.2,0,28.7,0
2004/8/1,21:15,24.5,0,83.4,0,26.7,0,45.8,0,27.7,0,27.2,0,28.7,0
2004/8/1,21:30,24.7,0,82.7,0,26.5,0,46.1,0,27.1,0,27.2,0,28.5,0
2004/8/1,21:45,24.4,0,84.7,0,26.4,0,46.5,0,26.9,0,27.2,0,28.4,0
2004/8/1,22:00,24.2,0,85.9,0,26.3,0,46.4,0,26.6,0,27.2,0,28.2,0
2004/8/1,22:15,24.5,0,85.5,0,26.5,0,46.1,0,26.5,0,27.2,0,28,0
2004/8/1,22:30,24,0,86.4,0,27.2,0,47,0,26.7,0,27.2,0,28.3,0
2004/8/1,22:45,24.4,0,85.8,0,27.5,0,48.9,0,26.9,0,27.2,0,28.5,0
2004/8/1,23:00,23.8,0,87.1,0,27.6,0,50.8,0,26.9,0,27.2,0,28.6,0
2004/8/1,23:15,24.1,0,87.5,0,27.9,0,49.8,0,27,0,27.3,0,28.7,0
2004/8/1,23:30,23.8,0,86.6,0,28,0,49.7,0,27.2,0,27.3,0,28.8,0
2004/8/1,23:45,23.6,0,86.9,0,28.2,0,49.7,0,27.3,0,27.3,0,28.9,0
2004/8/2,0:00,24,0,86.9,0,28.3,0,50,0,27.3,0,27.3,0,29,0
2004/8/2,0:15,24,0,86.4,0,28.4,0,50,0,27.4,0,27.4,0,29,0
2004/8/2,0:30,23.7,0,87.2,0,28.5,0,50,0,27.4,0,27.4,0,29.1,0
2004/8/2,0:45,23.9,0,86.3,0,28.5,0,50,0,27.5,0,27.4,0,29.1,0
2004/8/2,1:00,24,0,86.2,0,28.6,0,50.1,0,27.5,0,27.4,0,29.2,0
2004/8/2,1:15,24,0,85.2,0,28.6,0,50.1,0,27.5,0,27.5,0,29.2,0
2004/8/2,1:30,23.8,0,85.6,0,28.7,0,50,0,27.6,0,27.5,0,29.2,0
2004/8/2,1:45,23.5,0,86.4,0,28.7,0,50,0,27.6,0,27.5,0,29.2,0
2004/8/2,2:00,23.2,0,87.6,0,28.8,0,50,0,27.6,0,27.5,0,29.2,0
2004/8/2,2:15,23.1,0,87.7,0,28.8,0,50.1,0,27.6,0,27.6,0,29.3,0
2004/8/2,2:30,23.4,0,86.7,0,28.4,0,49.3,0,27.6,0,27.6,0,29.2,0
2004/8/2,2:45,23.5,0,86.8,0,27.8,0,48.7,0,27.6,0,27.6,0,28.8,0
2004/8/2,3:00,23.4,0,86.2,0,27.4,0,48.1,0,27.6,0,27.6,0,28.5,0
2004/8/2,3:15,23.1,0,85.8,0,27,0,47.7,0,27.5,0,27.6,0,28.2,0
2004/8/2,3:30,23.6,0,83.3,0,26.7,0,47.3,0,27.4,0,27.6,0,27.9,0
2004/8/2,3:45,23.7,0,82.3,0,26.5,0,47,0,27.4,0,27.6,0,27.7,0
2004/8/2,4:00,24,0,80.7,0,26.2,0,46.9,0,27.3,0,27.5,0,27.5,0
2004/8/2,4:15,23.5,0,83,0,26,0,47.1,0,27.2,0,27.5,0,27.3,0
2004/8/2,4:30,23.4,0,83.3,0,25.8,0,47,0,27.2,0,27.4,0,27.1,0
2004/8/2,4:45,23.4,0,83.2,0,25.6,0,46.8,0,27.1,0,27.3,0,26.9,0
2004/8/2,5:00,23.8,0,81.3,0,25.4,0,46.9,0,27,0,27.2,0,26.8,0
2004/8/2,5:15,23.8,0,81.9,0,25.2,0,46.8,0,26.9,0,27.2,0,26.6,0
2004/8/2,5:30,24,0,80.8,0,25.1,0,46.9,0,26.9,0,27.1,0,26.5,0
2004/8/2,5:45,24.6,0,80,0,25,0,47.1,0,26.8,0,27,0,26.5,0
2004/8/2,6:00,25,0,78.8,0,24.9,0,47,0,26.7,0,26.9,0,26.4,0
2004/8/2,6:15,25.5,0,76.2,0,24.9,0,46.9,0,26.7,0,26.9,0,26.4,0
2004/8/2,6:30,25.9,0,73.5,0,24.8,0,47.2,0,26.6,0,26.8,0,26.4,0
2004/8/2,6:45,26.1,0,72.7,0,24.7,0,47.2,0,26.6,0,25.9,0,26.4,0
2004/8/2,7:00,26.4,0,72.6,0,24.8,0,48,0,26.5,0,26,0,26.4,0
2004/8/2,7:15,26.7,0,71.4,0,25.7,0,50.4,0,26.4,0,26.1,0,26.8,0
2004/8/2,7:30,27.2,0,70,0,26,0,51.5,0,26.4,0,26.1,0,27.1,0
2004/8/2,7:45,27.8,0,67.8,0,26.4,0,52.1,0,26.4,0,26.2,0,27.5,0
2004/8/2,8:00,28.3,0,67.1,0,26.7,0,52.6,0,26.5,0,26.3,0,27.8,0
2004/8/2,8:15,28.5,0,66.2,0,27,0,52.9,0,26.5,0,26.4,0,28.2,0
2004/8/2,8:30,28.7,0,67.6,0,27.3,0,53.4,0,26.5,0,26.4,0,28.5,0
2004/8/2,8:45,29.1,0,65.1,0,27.7,0,53.5,0,26.5,0,26.4,0,28.8,0
2004/8/2,9:00,29.6,0,64.9,0,28,0,53.6,0,26.6,0,26.4,0,29.2,0
2004/8/2,9:15,30.4,0,63.2,0,28.3,0,53.9,0,26.6,0,26.5,0,29.5,0
2004/8/2,9:30,30.9,0,61,0,28.6,0,54.2,0,26.6,0,26.5,0,29.8,0
2004/8/2,9:45,31.7,0,58.5,0,28.9,0,54.7,0,26.7,0,26.5,0,30.1,0
2004/8/2,10:00,32.1,0,57.1,0,29.3,0,54.9,0,26.8,0,26.6,0,30.5,0
2004/8/2,10:15,32.6,0,55.7,0,29.6,0,55.5,0,26.9,0,26.6,0,30.9,0
2004/8/2,10:30,32.9,0,52.4,0,29.8,0,55.8,0,27,0,26.7,0,31.2,0
2004/8/2,10:45,33.2,0,54.3,0,30.2,0,56,0,27.1,0,26.7,0,31.5,0
2004/8/2,11:00,33.5,0,50.6,0,30.5,0,56,0,27.2,0,26.8,0,31.9,0
2004/8/2,11:15,33.7,0,50.6,0,30.8,0,56.2,0,27.3,0,26.8,0,32.2,0
2004/8/2,11:30,33.5,0,49.4,0,31.1,0,56.1,0,27.4,0,26.8,0,32.5,0
2004/8/2,11:45,33.3,0,48.4,0,31.4,0,55.5,0,27.5,0,26.9,0,32.8,0
2004/8/2,12:00,34,0,41.8,0,31.7,0,54.9,0,27.6,0,26.9,0,33.1,0
2004/8/2,12:15,34,0,39.5,0,31.9,0,54.5,0,27.8,0,27,0,33.4,0
2004/8/2,12:30,33.9,0,39.3,0,32.2,0,54,0,27.9,0,27.1,0,33.6,0
2004/8/2,12:45,34,0,37.4,0,32.4,0,53.7,0,28,0,27.1,0,33.9,0
2004/8/2,13:00,33.8,0,38.8,0,32.6,0,53.5,0,28.2,0,27.2,0,34.1,0
2004/8/2,13:15,33.7,0,41,0,32.8,0,53.3,0,28.3,0,27.3,0,34.3,0
2004/8/2,13:30,33.8,0,40.9,0,33,0,53.1,0,28.4,0,27.4,0,34.4,0
2004/8/2,13:45,33.7,0,43.4,0,33.2,0,52.9,0,28.5,0,27.4,0,34.6,0
2004/8/2,14:00,33.6,0,43.1,0,33.5,0,52.8,0,28.7,0,27.5,0,34.8,0
2004/8/2,14:15,33.7,0,40.7,0,33.7,0,52.5,0,28.8,0,27.6,0,35,0
2004/8/2,14:30,33.6,0,40.4,0,33.9,0,52.4,0,28.9,0,27.7,0,35.2,0
2004/8/2,14:45,33.2,0,46.2,0,34.2,0,51.7,0,29.1,0,27.7,0,35.5,0
2004/8/2,15:00,32.9,0,49,0,34.4,0,51.4,0,29.2,0,27.8,0,35.7,0
2004/8/2,15:15,32.5,0,49.3,0,34.7,0,51.1,0,29.3,0,27.9,0,35.9,0
2004/8/2,15:30,32.3,0,47.9,0,34.9,0,50.7,0,29.4,0,28,0,36.1,0
2004/8/2,15:45,32.2,0,47.6,0,35.1,0,50.5,0,29.5,0,28.1,0,36.3,0
2004/8/2,16:00,32.4,0,47.6,0,35.3,0,50.2,0,29.6,0,28.2,0,36.4,0
2004/8/2,16:15,32.1,0,50.7,0,35.5,0,50,0,29.7,0,28.3,0,36.6,0
2004/8/2,16:30,31.8,0,52.1,0,35.6,0,49.6,0,29.7,0,28.4,0,36.7,0
2004/8/2,16:45,31.8,0,51.6,0,35.7,0,49.6,0,29.8,0,28.5,0,36.8,0
2004/8/2,17:00,31.2,0,55.8,0,35.8,0,49.7,0,29.8,0,28.6,0,36.8,0
2004/8/2,17:15,30.8,0,56,0,34.2,0,44.1,0,29.8,0,28.6,0,36.4,0
2004/8/2,17:30,30.1,0,58.3,0,32.8,0,40.3,0,29.7,0,27.6,0,35.1,0
2004/8/2,17:45,29.4,0,59,0,32.2,0,39.7,0,29.7,0,27.9,0,34,0
2004/8/2,18:00,29,0,62.9,0,31.6,0,39.9,0,29.6,0,28,0,32.9,0
2004/8/2,18:15,28.4,0,66.1,0,31,0,40.1,0,29.5,0,28.1,0,32.2,0
2004/8/2,18:30,27.6,0,68.3,0,30.5,0,40.7,0,29.4,0,28.2,0,31.6,0
2004/8/2,18:45,27,0,69.9,0,30.1,0,40.9,0,29.4,0,28.2,0,31,0
2004/8/2,19:00,26.5,0,70,0,29.7,0,41.9,0,29.3,0,28.3,0,30.5,0
2004/8/2,19:15,26.4,0,70.6,0,29.5,0,42.1,0,29.3,0,27,0,30.5,0
2004/8/2,19:30,25.5,0,76.8,0,29.1,0,42,0,29.1,0,27.5,0,30.4,0
2004/8/2,19:45,24.9,0,80.2,0,28.9,0,42.3,0,28.3,0,27.6,0,30.3,0
2004/8/2,20:00,24.7,0,81.8,0,28.7,0,43,0,27.8,0,27.7,0,30.1,0
2004/8/2,20:15,25.1,0,79,0,28.4,0,42.6,0,27.3,0,27.7,0,29.8,0
2004/8/2,20:30,25.3,0,76.6,0,28.2,0,43.6,0,26.9,0,27.7,0,29.6,0
2004/8/2,20:45,24.3,0,82.8,0,28,0,43.6,0,26.5,0,27.7,0,29.4,0
2004/8/2,21:00,24.1,0,83,0,27.8,0,43.6,0,26.1,0,27.7,0,29.3,0
2004/8/2,21:15,24.5,0,81.5,0,27.5,0,42.8,0,25.9,0,27.7,0,29,0
2004/8/2,21:30,25.1,0,76,0,27.3,0,42.5,0,25.6,0,27.7,0,28.8,0
2004/8/2,21:45,25.2,0,75.1,0,28.2,0,45.7,0,26.1,0,27.8,0,29.1,0
2004/8/2,22:00,24,0,81,0,28.5,0,45.6,0,26.3,0,27.8,0,29.5,0
2004/8/2,22:15,24.2,0,79.5,0,28.6,0,45,0,26.5,0,27.8,0,29.7,0
2004/8/2,22:30,24.5,0,77.8,0,28.8,0,44.4,0,26.6,0,27.8,0,29.8,0
2004/8/2,22:45,24.4,0,77.8,0,28.8,0,43.8,0,26.6,0,27.8,0,29.9,0
2004/8/2,23:00,24.4,0,77.9,0,29.2,0,45,0,26.6,0,27.8,0,29.9,0
2004/8/2,23:15,25,0,74.4,0,29.5,0,45.6,0,26.8,0,27.9,0,30,0
2004/8/2,23:30,24.8,0,75.2,0,29.8,0,46.5,0,26.9,0,27.9,0,30.1,0
2004/8/2,23:45,23.6,0,81,0,29.9,0,47.2,0,27,0,27.9,0,30.3,0
2004/8/3,0:00,23.4,0,81.8,0,29.5,0,47.4,0,27,0,27.9,0,30.3,0
2004/8/3,0:15,23.2,0,83,0,29,0,46,0,27.1,0,26.3,0,29.7,0
2004/8/3,0:30,22.9,0,84.1,0,29.6,0,45.8,0,27.2,0,27,0,29.8,0
2004/8/3,0:45,23,0,83.8,0,29.7,0,46.5,0,27.3,0,27.1,0,30,0
2004/8/3,1:00,22.6,0,86.3,0,29.8,0,47,0,27.4,0,27.2,0,30.1,0
2004/8/3,1:15,22.7,0,85.5,0,29.9,0,47.7,0,27.4,0,27.3,0,30.2,0
2004/8/3,1:30,22.7,0,85.4,0,30,0,48.2,0,27.5,0,27.3,0,30.3,0
2004/8/3,1:45,22.3,0,86.4,0,30.1,0,48.4,0,27.5,0,27.3,0,30.4,0
2004/8/3,2:00,22.5,0,86.2,0,30.1,0,48.5,0,27.5,0,27.4,0,30.4,0
2004/8/3,2:15,22.5,0,85.5,0,30.1,0,48.5,0,27.6,0,27.4,0,30.4,0
2004/8/3,2:30,22.5,0,86.2,0,30.1,0,48.5,0,27.6,0,27.5,0,30.4,0
2004/8/3,2:45,22.2,0,86,0,30.1,0,48.5,0,27.6,0,27.5,0,30.4,0
2004/8/3,3:00,22,0,85.8,0,30.2,0,48.5,0,27.6,0,27.6,0,30.4,0
2004/8/3,3:15,22.4,0,85.4,0,30.1,0,48.5,0,27.6,0,27.6,0,30.4,0
2004/8/3,3:30,22.3,0,85.4,0,30.1,0,48.5,0,27.6,0,27.6,0,30.4,0
2004/8/3,3:45,22,0,86,0,30.1,0,48.4,0,27.6,0,27.7,0,30.4,0
2004/8/3,4:00,22,0,85.6,0,30.1,0,48.5,0,27.6,0,27.7,0,30.3,0
2004/8/3,4:15,22,0,85.2,0,30.1,0,48.5,0,27.6,0,27.7,0,30.3,0
2004/8/3,4:30,21.7,0,86.2,0,30.1,0,48.5,0,27.6,0,27.8,0,30.3,0
2004/8/3,4:45,21.9,0,85.9,0,30.1,0,48.5,0,27.6,0,27.8,0,30.2,0
2004/8/3,5:00,22.1,0,86.4,0,30,0,48.4,0,27.5,0,27.9,0,30.2,0
2004/8/3,5:15,22,0,86.6,0,30,0,48.3,0,27.5,0,27.9,0,30.2,0
2004/8/3,5:30,22.1,0,86.3,0,30.1,0,48.2,0,27.5,0,27.9,0,30.2,0
2004/8/3,5:45,22.1,0,87.3,0,30.1,0,49.4,0,27.5,0,28,0,30.4,0
2004/8/3,6:00,22.8,0,85.4,0,30.1,0,49.3,0,27.5,0,28,0,30.5,0
2004/8/3,6:15,24,0,80.9,0,30.2,0,49.1,0,27.5,0,28,0,30.6,0
2004/8/3,6:30,24.5,0,79.6,0,30.3,0,49.1,0,27.5,0,26.8,0,30.8,0
2004/8/3,6:45,25.4,0,75.6,0,29.7,0,48.1,0,27.6,0,27.5,0,31.4,0
2004/8/3,7:00,26.1,0,74.9,0,29.1,0,46.1,0,27.5,0,27.7,0,30.7,0
2004/8/3,7:15,26.9,0,71.6,0,28.7,0,45.7,0,27.5,0,27.7,0,30.2,0
2004/8/3,7:30,27.9,0,67.9,0,28.6,0,45.7,0,27.5,0,26.7,0,30,0
2004/8/3,7:45,29.3,0,59.1,0,28.4,0,45.6,0,27.5,0,27.2,0,29.9,0
2004/8/3,8:00,30.6,0,51.6,0,28.3,0,45.5,0,27.5,0,26.9,0,29.9,0
2004/8/3,8:15,31.1,0,49,0,28.3,0,45.2,0,27.5,0,27,0,30,0
2004/8/3,8:30,31.2,0,48.8,0,28.4,0,45.3,0,27.4,0,27,0,30.1,0
2004/8/3,8:45,31.6,0,48,0,28.4,0,45.3,0,27.4,0,27,0,30.2,0
2004/8/3,9:00,31.6,0,47.6,0,28.5,0,45.3,0,27.4,0,26.6,0,30.3,0
2004/8/3,9:15,31.6,0,48.5,0,28.5,0,45.3,0,27.5,0,26.9,0,30.4,0
2004/8/3,9:30,31.8,0,48.9,0,28.6,0,45.4,0,27.5,0,26.9,0,30.5,0
2004/8/3,9:45,31.7,0,48.6,0,28.5,0,46,0,27.5,0,27,0,30.6,0
2004/8/3,10:00,32,0,48,0,28.6,0,45.6,0,27.5,0,27,0,30.7,0
2004/8/3,10:15,32,0,47.7,0,28.6,0,45.7,0,27.6,0,27.1,0,30.7,0
2004/8/3,10:30,31.9,0,47.5,0,28.5,0,45.8,0,27.6,0,27.1,0,30.7,0
2004/8/3,10:45,32.1,0,47.3,0,28.4,0,45.8,0,27.7,0,27.1,0,30.7,0
2004/8/3,11:00,32.1,0,47.3,0,28.3,0,45.8,0,27.7,0,27.1,0,30.6,0
2004/8/3,11:15,32.3,0,46.5,0,28.2,0,45.9,0,27.8,0,27.2,0,30.6,0
2004/8/3,11:30,31.9,0,46.7,0,28.2,0,46,0,27.8,0,27.2,0,30.6,0
2004/8/3,11:45,31.5,0,48.1,0,28.1,0,45.8,0,27.9,0,27.2,0,30.6,0
2004/8/3,12:00,31.2,0,49.1,0,28,0,45.8,0,27.9,0,27.3,0,30.6,0
2004/8/3,12:15,31.4,0,48.8,0,28,0,45.7,0,27.9,0,27.3,0,30.5,0
2004/8/3,12:30,31.6,0,49.4,0,28,0,45.7,0,27.9,0,27.3,0,30.5,0
2004/8/3,12:45,31.8,0,49.8,0,27.9,0,45.9,0,28,0,27.3,0,30.4,0
2004/8/3,13:00,32,0,49.4,0,27.9,0,46.5,0,28,0,27.3,0,30.4,0
2004/8/3,13:15,31.3,0,52.1,0,28,0,48.4,0,28.1,0,27.3,0,30.5,0
2004/8/3,13:30,30.6,0,55.7,0,28.1,0,47.4,0,28.1,0,27.4,0,30.4,0
2004/8/3,13:45,30.2,0,58.9,0,28.1,0,47,0,28.2,0,26.5,0,30.4,0
2004/8/3,14:00,30,0,62.4,0,28,0,47,0,28.2,0,27.1,0,30.4,0
2004/8/3,14:15,30.2,0,63,0,28.4,0,48,0,27.9,0,26.5,0,30.7,0
2004/8/3,14:30,30.2,0,62.2,0,28.3,0,46.9,0,27.3,0,26.6,0,30.9,0
2004/8/3,14:45,29.2,0,67.7,0,28.3,0,46,0,26.9,0,26.7,0,30.8,0
2004/8/3,15:00,29,0,67.3,0,28.2,0,45.3,0,26.5,0,26.8,0,30.6,0
2004/8/3,15:15,28.9,0,67.2,0,28.1,0,44.8,0,26.1,0,26.8,0,30.5,0
2004/8/3,15:30,28.7,0,65.8,0,28,0,44.6,0,25.8,0,26.8,0,30.4,0
2004/8/3,15:45,28.8,0,65.7,0,28,0,44.1,0,25.5,0,26.9,0,30.3,0
2004/8/3,16:00,28.2,0,68.6,0,27.9,0,43.8,0,25.2,0,26.9,0,30.2,0
2004/8/3,16:15,27.9,0,70.6,0,27.8,0,43.4,0,25.2,0,26.9,0,30,0
2004/8/3,16:30,27.9,0,69.7,0,27.8,0,43.5,0,25.7,0,27,0,29.8,0
2004/8/3,16:45,27.5,0,70.8,0,27.7,0,43.7,0,26.1,0,27,0,29.8,0
2004/8/3,17:00,27.4,0,71.2,0,27.7,0,43.7,0,26.3,0,27,0,29.8,0
2004/8/3,17:15,27.1,0,71.9,0,27.6,0,44.2,0,26.5,0,27,0,29.7,0
2004/8/3,17:30,27.7,0,69.7,0,27.7,0,47.1,0,26.6,0,27.1,0,29.5,0
2004/8/3,17:45,27.7,0,68.7,0,27.8,0,48.9,0,26.7,0,27.1,0,29.6,0
2004/8/3,18:00,27.1,0,71.1,0,27.8,0,49.6,0,26.8,0,27.1,0,29.3,0
2004/8/3,18:15,26.6,0,73,0,27.8,0,50.1,0,26.9,0,27.1,0,29.1,0
2004/8/3,18:30,26.2,0,75.8,0,28.7,0,52.4,0,26.9,0,27.2,0,29.5,0
2004/8/3,18:45,26.2,0,75.8,0,29.1,0,53,0,27,0,27.2,0,30.5,0
2004/8/3,19:00,25.7,0,78.3,0,28.6,0,50.2,0,27.2,0,27.2,0,30.4,0
2004/8/3,19:15,25.2,0,80.9,0,28.2,0,48.2,0,27,0,27.3,0,30,0
2004/8/3,19:30,25.3,0,80.6,0,27.9,0,46.4,0,26.3,0,27.3,0,29.7,0
2004/8/3,19:45,25.1,0,81.9,0,27.6,0,45.4,0,25.7,0,27.3,0,29.4,0
2004/8/3,20:00,24.7,0,82.6,0,27.5,0,44.5,0,25.2,0,27.3,0,29.2,0
2004/8/3,20:15,24.4,0,83.7,0,27.2,0,44,0,25.3,0,27.3,0,29,0
2004/8/3,20:30,24.1,0,84.8,0,27.1,0,44.7,0,25.7,0,27.3,0,28.8,0
2004/8/3,20:45,23.6,0,86.5,0,26.9,0,45.3,0,25.9,0,27.3,0,28.7,0
2004/8/3,21:00,23.2,0,88.2,0,26.8,0,47.1,0,26.1,0,27.3,0,28.5,0
2004/8/3,21:15,23.1,0,88.9,0,26.6,0,45.8,0,25.8,0,27.3,0,28.3,0
2004/8/3,21:30,23.2,0,88.9,0,27.3,0,45.6,0,25.4,0,27.3,0,28.4,0
2004/8/3,21:45,23.1,0,89.1,0,27.7,0,46.2,0,25.2,0,27.4,0,28.6,0
2004/8/3,22:00,22.9,0,89.5,0,27.9,0,46.9,0,25.3,0,27.4,0,28.8,0
2004/8/3,22:15,23.1,0,89,0,28.1,0,47.5,0,25.6,0,27.4,0,28.9,0
2004/8/3,22:30,22.8,0,88.7,0,28.2,0,48.3,0,25.8,0,27.4,0,29,0
2004/8/3,22:45,22.5,0,89.8,0,28.3,0,49,0,25.9,0,27.5,0,29.1,0
2004/8/3,23:00,22.3,0,89.8,0,28.4,0,49.2,0,26,0,27.5,0,29.1,0
2004/8/3,23:15,22.4,0,90.1,0,28.4,0,49.1,0,26.1,0,27.5,0,29.1,0
2004/8/3,23:30,22.7,0,89.8,0,28.5,0,49.1,0,26.1,0,27.5,0,29.1,0
2004/8/3,23:45,22.6,0,88.9,0,28.5,0,49.1,0,26.1,0,27.6,0,29.1,0
2004/8/4,0:00,22.6,0,90.1,0,28.5,0,49,0,26.2,0,27.6,0,29.1,0
2004/8/4,0:15,22.6,0,89.7,0,28.6,0,49,0,26.2,0,27.6,0,29.1,0
2004/8/4,0:30,22.5,0,89.5,0,28.6,0,48.9,0,26.2,0,27.6,0,29.1,0
2004/8/4,0:45,21.9,0,89.4,0,28.6,0,48.9,0,26.2,0,27.7,0,29,0
2004/8/4,1:00,21.8,0,90.2,0,28.6,0,48.9,0,26.3,0,27.7,0,29,0
2004/8/4,1:15,21.7,0,89.9,0,28.6,0,48.9,0,26.3,0,27.7,0,29,0
2004/8/4,1:30,21.6,0,89.5,0,28.6,0,48.9,0,26.3,0,27.7,0,29,0
2004/8/4,1:45,21.5,0,89.9,0,28.6,0,48.9,0,26.3,0,27.7,0,29,0
2004/8/4,2:00,21.4,0,90,0,28.6,0,48.7,0,26.3,0,27.8,0,28.9,0
2004/8/4,2:15,21.5,0,90.9,0,28.6,0,48.8,0,26.3,0,27.8,0,28.9,0
2004/8/4,2:30,21.2,0,90.9,0,28.6,0,48.7,0,26.3,0,27.8,0,28.9,0
2004/8/4,2:45,21.5,0,91.4,0,28.6,0,48.7,0,26.3,0,27.8,0,28.9,0
2004/8/4,3:00,21.5,0,91.6,0,28.6,0,48.6,0,26.3,0,27.9,0,28.8,0
2004/8/4,3:15,21.3,0,90.5,0,28.5,0,48.6,0,26.3,0,27.9,0,28.8,0
2004/8/4,3:30,21,0,90.5,0,28.5,0,48.7,0,26.3,0,27.9,0,28.8,0
2004/8/4,3:45,20.9,0,90.8,0,28.5,0,48.6,0,26.3,0,27.9,0,28.7,0
2004/8/4,4:00,21.3,0,91.3,0,28.5,0,48.6,0,26.3,0,27.9,0,28.7,0
2004/8/4,4:15,21.5,0,90.9,0,28.4,0,48.6,0,26.3,0,27.9,0,28.7,0
2004/8/4,4:30,21.2,0,90.6,0,28.4,0,48.6,0,26.3,0,27.9,0,28.7,0
2004/8/4,4:45,21.6,0,90.4,0,28.4,0,48.5,0,26.3,0,28,0,28.6,0
2004/8/4,5:00,21.6,0,90,0,28.4,0,48.5,0,26.3,0,28,0,28.6,0
2004/8/4,5:15,21.8,0,90.4,0,28.4,0,48.5,0,26.3,0,28,0,28.6,0
2004/8/4,5:30,22.1,0,89.1,0,28.4,0,48.5,0,26.2,0,28,0,28.6,0
2004/8/4,5:45,22.3,0,88.7,0,28.3,0,48.8,0,26.2,0,28,0,28.6,0
2004/8/4,6:00,23,0,86.9,0,28.3,0,49.6,0,26.2,0,28,0,28.6,0
2004/8/4,6:15,23.5,0,86.2,0,28.4,0,49.3,0,26.2,0,28,0,28.6,0
2004/8/4,6:30,23.9,0,85.2,0,28.4,0,49.3,0,26.2,0,28,0,28.7,0
2004/8/4,6:45,24.1,0,86.4,0,28.4,0,50.3,0,26.2,0,28.1,0,29.2,0
2004/8/4,7:00,24.3,0,83.4,0,28.4,0,52,0,26.2,0,28.1,0,29.8,0
2004/8/4,7:15,24.9,0,80.9,0,28.6,0,52.2,0,26.2,0,28.1,0,29.9,0
2004/8/4,7:30,25.3,0,79,0,28.6,0,52.5,0,26.2,0,27.3,0,29.8,0
2004/8/4,7:45,25.8,0,78,0,28.7,0,52.6,0,26.2,0,27.5,0,29.7,0
2004/8/4,8:00,26.5,0,75.4,0,28.8,0,53.6,0,26.2,0,27.5,0,29.6,0
2004/8/4,8:15,26.8,0,75.6,0,29,0,54.1,0,26.2,0,27.5,0,29.7,0
2004/8/4,8:30,27.1,0,74.8,0,29.1,0,54.1,0,26.2,0,27.6,0,29.8,0
2004/8/4,8:45,27.7,0,73.5,0,28.8,0,53.6,0,26.2,0,27.6,0,29.8,0
2004/8/4,9:00,28.2,0,70.7,0,28.3,0,51.1,0,26.3,0,27.6,0,29.5,0
2004/8/4,9:15,28.3,0,71.9,0,28,0,49.6,0,26.3,0,27.6,0,29.4,0
2004/8/4,9:30,29,0,69.8,0,28.7,0,50.7,0,26.3,0,27.6,0,29.5,0
2004/8/4,9:45,30.1,0,65.9,0,29,0,51.8,0,26.4,0,27.7,0,29.9,0
2004/8/4,10:00,31.1,0,62.6,0,29.4,0,52.9,0,26.5,0,27.7,0,30.3,0
2004/8/4,10:15,31.1,0,62.1,0,29.6,0,53.6,0,26.6,0,27.7,0,30.7,0
2004/8/4,10:30,31.9,0,59.3,0,29.9,0,54.7,0,26.7,0,27.7,0,31,0
2004/8/4,10:45,32.1,0,58.5,0,30.2,0,55.6,0,26.8,0,27.8,0,31.2,0
2004/8/4,11:00,32.9,0,53.8,0,30.4,0,56.5,0,26.9,0,27.8,0,31.5,0
2004/8/4,11:15,32.6,0,51.1,0,30.8,0,57.2,0,27.1,0,27.8,0,31.9,0
2004/8/4,11:30,32.6,0,54,0,31.1,0,57.1,0,27.2,0,27.9,0,32.3,0
2004/8/4,11:45,33,0,52.8,0,31.5,0,57.1,0,27.3,0,27.9,0,32.6,0
2004/8/4,12:00,32.3,0,60.7,0,31.8,0,57.2,0,27.5,0,28,0,33,0
2004/8/4,12:15,31.5,0,61.5,0,32.1,0,57.3,0,27.6,0,28,0,33.3,0
2004/8/4,12:30,31.3,0,62.1,0,32.3,0,56.9,0,27.7,0,28.1,0,33.5,0
2004/8/4,12:45,32,0,60.7,0,32.6,0,56.4,0,27.8,0,28.1,0,33.8,0
2004/8/4,13:00,32.7,0,57.8,0,32.8,0,56.3,0,28,0,28.2,0,34,0
2004/8/4,13:15,32.8,0,56.8,0,33,0,56.3,0,28.1,0,28.2,0,34.2,0
2004/8/4,13:30,33.1,0,56.8,0,33.3,0,56.3,0,28.2,0,28.3,0,34.4,0
2004/8/4,13:45,33.3,0,55.9,0,33.5,0,56.2,0,28.4,0,28.4,0,34.6,0
2004/8/4,14:00,32.4,0,59.1,0,33.7,0,56.2,0,28.5,0,28.4,0,34.8,0
2004/8/4,14:15,32.6,0,59.9,0,33.9,0,55.9,0,28.6,0,28.5,0,35,0
2004/8/4,14:30,33,0,57,0,34.1,0,55.8,0,28.7,0,28.6,0,35.3,0
2004/8/4,14:45,33.2,0,54.6,0,34.4,0,55.4,0,28.9,0,28.6,0,35.5,0
2004/8/4,15:00,33.2,0,53,0,34.6,0,55.1,0,29,0,28.7,0,35.8,0
2004/8/4,15:15,33.7,0,52.1,0,34.8,0,54.9,0,29.1,0,28.8,0,36,0
2004/8/4,15:30,34,0,51.1,0,35,0,54.4,0,29.3,0,28.8,0,36.2,0
2004/8/4,15:45,33.9,0,51.8,0,35.3,0,54,0,29.4,0,28.9,0,36.4,0
2004/8/4,16:00,33.7,0,54.5,0,34.5,0,50,0,29.4,0,29,0,36.4,0
2004/8/4,16:15,33.5,0,54.9,0,33.5,0,44.3,0,28.7,0,29.1,0,36,0
2004/8/4,16:30,33.1,0,57.2,0,33,0,41.6,0,28,0,29.1,0,35.4,0
2004/8/4,16:45,32.5,0,58.8,0,32.3,0,39.4,0,27.3,0,29.2,0,34.9,0
2004/8/4,17:00,32,0,60.4,0,31.7,0,38.9,0,26.6,0,29.2,0,34.4,0
2004/8/4,17:15,30.9,0,66.1,0,30.5,0,42.8,0,28.2,0,29.2,0,32,0
2004/8/4,17:30,30.5,0,68.3,0,30.9,0,41.7,0,26.6,0,29.3,0,32.7,0
2004/8/4,17:45,29.9,0,70.8,0,31.1,0,43.8,0,26,0,29.3,0,33.5,0
2004/8/4,18:00,29.2,0,71.1,0,30.9,0,44.2,0,25.6,0,29.3,0,33,0
2004/8/4,18:15,28.7,0,72.1,0,30.7,0,43.9,0,25.4,0,29.3,0,32.3,0
2004/8/4,18:30,28.3,0,73.6,0,30.3,0,44.5,0,25.2,0,29.3,0,31.7,0
2004/8/4,18:45,28,0,73.3,0,29.8,0,44.5,0,25,0,29.4,0,31.3,0
2004/8/4,19:00,27.8,0,73.1,0,29.5,0,42.7,0,24.8,0,29.4,0,31.2,0
2004/8/4,19:15,27.4,0,76.3,0,29.4,0,43.5,0,24.7,0,29.4,0,31.1,0
2004/8/4,19:30,27.1,0,78.3,0,29,0,43.4,0,24.5,0,27.6,0,30.9,0
2004/8/4,19:45,27,0,79.4,0,28.7,0,43,0,24.6,0,27.8,0,30.6,0
2004/8/4,20:00,26.5,0,81.8,0,28.5,0,43.2,0,24.8,0,27.9,0,30.3,0
2004/8/4,20:15,26.5,0,82.4,0,28.2,0,43.7,0,24.8,0,27.9,0,30,0
2004/8/4,20:30,26.5,0,80.6,0,28.1,0,43.6,0,24.9,0,27.9,0,29.8,0
2004/8/4,20:45,26.1,0,83.1,0,27.8,0,44.9,0,25.3,0,28,0,29.7,0
2004/8/4,21:00,26.2,0,82.3,0,27.7,0,44.9,0,25.6,0,28,0,29.5,0
2004/8/4,21:15,26.1,0,81.7,0,27.5,0,45.1,0,25.8,0,28,0,29.3,0
2004/8/4,21:30,25.6,0,83.7,0,28.7,0,45.7,0,26,0,28,0,29.4,0
2004/8/4,21:45,25.3,0,85.2,0,29.3,0,47.3,0,26.2,0,28,0,29.8,0
2004/8/4,22:00,25.2,0,86.3,0,29.7,0,48.5,0,26.4,0,28,0,30.2,0
2004/8/4,22:15,25,0,86.6,0,30,0,49.4,0,26.5,0,28,0,30.5,0